Flag Weather past 2 weeks in Joensuu, Finland

Now
34 °F

Fog.


Feels Like: 30 °F
Forecast: 31 / 35 °F
Wind: 5 mph from Southwest

Location: Joensuu Airport

Current Time: Nov 26, 2014 at 1:50:26 PM

Latest Report: Nov 26, 2014 at 1:20 PM


Visibility: 1 mi

Pressure: 30.21 "Hg

Humidity: 100%

Dew point: 34 °F

Location of JoensuuLocation

Historic Weather in Joensuu — Graph

°F

Joensuu temperature yesterday

Maximum temperature yesterday: 34 °F (at 9:20 PM)
Minimum temperature yesterday: 30 °F (at 12:20 AM)
Average temperature yesterday: 31 °F

Past Weeks' High & Low Weather Summary

 TemperatureHumidityPressure
High46 °F (Nov 11, 6:20 PM)100% (Nov 11, 12:20 PM)30.60 "Hg (Nov 11, 12:20 PM)
Low18 °F (Nov 15, 11:50 AM)80% (Nov 13, 9:20 AM)29.77 "Hg (Nov 11, 2:20 PM)
Average30 °F96%30.38 "Hg
* Reported Nov 11 12:20 PM — Nov 26 12:50 PM, Joensuu, Weather by CustomWeather, © 2014

Note: Actual official high and low records may vary slightly from our data, if they occured in-between our weather recording intervals... More about our weather records

Advertising

Joensuu weather history for previous 24 hours

 ConditionsComfort  
Time TempWeatherWind HumidityBarometerVisibility
12:50 PM
Nov 26
34 °FFog.5 mph100%30.21 "Hg1 mi
12:20 PM34 °FFog.6 mph100%30.21 "Hg2 mi
11:50 AM34 °FFog.6 mph100%30.21 "Hg2 mi
11:20 AM34 °FFog.6 mph100%30.21 "Hg2 mi
10:50 AM34 °FFog.3 mph100%30.21 "Hg2 mi
10:20 AM34 °FFog.5 mph100%30.21 "Hg1 mi
9:50 AM34 °FSprinkles. Fog.5 mph100%30.21 "Hg1 mi
9:20 AM34 °FLight rain. Low clouds.5 mph100%30.21 "Hg1 mi
8:50 AM34 °FLight rain. Low clouds.5 mph100%30.21 "Hg1 mi
8:20 AM34 °FSprinkles. Fog.6 mph100%30.21 "Hg1 mi
7:50 AM34 °FFog.6 mph100%30.21 "Hg1 mi
7:20 AM34 °FFog.6 mph100%30.18 "Hg1 mi
6:50 AM34 °FFog.6 mph100%30.18 "Hg1 mi
6:20 AM34 °FFog.7 mph100%30.18 "Hg1 mi
5:50 AM34 °FLow clouds.7 mph100%30.18 "Hg3 mi
5:20 AM34 °FFog.7 mph100%30.21 "Hg2 mi
4:50 AM34 °FFog.8 mph100%30.21 "Hg1 mi
4:20 AM34 °FFog.7 mph100%30.21 "Hg2 mi
3:50 AM34 °FLight rain. Fog.6 mph100%30.21 "Hg2 mi
3:20 AM34 °FLow clouds.6 mph100%30.21 "Hg3 mi
2:50 AM34 °FLow clouds.7 mph100%30.21 "Hg3 mi
2:20 AM34 °FLow clouds.7 mph100%30.21 "Hg3 mi
1:50 AM34 °FLow clouds.6 mph100%30.21 "Hg3 mi
1:20 AM34 °FLow clouds.7 mph100%30.21 "Hg4 mi
12:50 AM34 °FLow clouds.7 mph100%30.21 "Hg5 mi
12:20 AM34 °FLow clouds.6 mph100%30.21 "Hg5 mi
11:50 PM
Nov 25
34 °FLow clouds.7 mph100%30.21 "Hg4 mi
11:20 PM34 °FLow clouds.6 mph100%30.21 "Hg3 mi
10:50 PM34 °FLow clouds.6 mph100%30.21 "Hg3 mi
10:20 PM34 °FLow clouds.6 mph100%30.21 "Hg3 mi
9:50 PM34 °FLow clouds.6 mph100%30.21 "Hg4 mi
9:20 PM34 °FLow clouds.6 mph100%30.21 "Hg4 mi
8:50 PM32 °FLow clouds.7 mph100%30.21 "Hg4 mi
8:20 PM32 °FLight snow. Low clouds.7 mph100%30.21 "Hg4 mi
7:50 PM32 °FIce fog.7 mph100%30.21 "Hg3 mi
7:20 PM32 °FIce fog.6 mph100%30.21 "Hg2 mi
6:50 PM32 °FIce fog.5 mph100%30.21 "Hg2 mi
6:20 PM32 °FIce fog.5 mph100%30.21 "Hg2 mi
5:50 PM32 °FIce fog.7 mph100%30.21 "Hg2 mi
5:20 PM32 °FLow clouds.6 mph100%30.21 "Hg3 mi
4:50 PM32 °FLow clouds.6 mph100%30.21 "Hg4 mi
4:20 PM32 °FLow clouds.5 mph100%30.21 "Hg4 mi
3:50 PM32 °FLow clouds.6 mph93%30.21 "Hg3 mi
3:20 PM32 °FSnow flurries. Ice fog.6 mph93%30.21 "Hg2 mi
2:50 PM32 °FSnow flurries. Ice fog.6 mph93%30.21 "Hg3 mi
2:20 PM32 °FSnow flurries. Ice fog.7 mph93%30.21 "Hg2 mi
1:50 PM32 °FLow clouds.6 mph93%30.21 "Hg4 mi
1:20 PM32 °FLow clouds.7 mph93%30.21 "Hg5 mi
Weather by CustomWeather, © 2014

See weather overviewHow to use our weather pages